Regional Weather Roundup
Issued by NWS Sioux Falls, SD

Home | Current Version | Previous Version | Text Only | Print | Product List | Glossary On
Versions: 1 2 3 4 5 6 7 8 9 10 11 12 13 14 15 16 17 18 19 20 21 22 23 24 25 26 27 28 29 30 31 32 33 34 35 36 37 38 39 40 41 42 43 44 45 46 47 48 49 50
000
ASUS43 KFSD 290410
RWRFSD

WEATHER ROUNDUP FOR SE SOUTH DAKOTA/SW MINNESOTA/NW IOWA
NATIONAL WEATHER SERVICE SIOUX FALLS SD
1100 PM CDT THU AUG 28 2014

NOTE: "FAIR" INDICATES FEW OR NO CLOUDS BELOW 12,000 FEET WITH NO
SIGNIFICANT WEATHER AND OR OBSTRUCTIONS TO VISIBILITY.


SDZ038>040-050-052>070-290500-
SOUTHEAST SOUTH DAKOTA

CITY           SKY/WX    TMP DP  RH WIND       PRES   REMARKS
CHAMBERLAIN    CLOUDY    69  68  98 CALM      29.83F
HURON          CLOUDY    69  68  96 E6        29.82R
MADISON        CLOUDY    68  68 100 SE7       29.85F
MITCHELL       CLOUDY    71  70  96 SE3       29.82R FOG
SIOUX FALLS    CLOUDY    72  70  93 SE9       29.82F FOG
WINNER         FAIR      69  66  90 NW7       29.82F
YANKTON        CLOUDY    72  72 100 NE5       29.81S
$$

MNZ071-072-080-081-089-090-097-098-290500-
SOUTHWEST MINNESOTA

CITY           SKY/WX    TMP DP  RH WIND       PRES   REMARKS
FAIRMONT       CLOUDY    64  64 100 SE5       29.87F
JACKSON        CLOUDY    68  64  88 SE3       29.87F FOG
LUVERNE        CLOUDY    72  70  94 SE3       29.84F FOG
MARSHALL       CLOUDY    66  64  94 SE12      29.85S
MONTEVIDEO     CLOUDY    66  66 100 S12       29.87S FOG
PIPESTONE      CLOUDY    68  66  94 SE7       29.86S
REDWOOD FALLS  CLOUDY    67  65  93 E7        29.87F
TRACY          CLOUDY    67  66  96 SE9       29.87S
WINDOM         DRZL/FOG  66  64  94 E6        29.88S VSB 1/2
WORTHINGTON    CLOUDY    70  68  94 CALM      29.87F
$$

IAZ001>003-012>014-020>022-031-032-NEZ013-014-SDZ071-290500-
NORTHWEST IOWA

CITY           SKY/WX    TMP DP  RH WIND       PRES   REMARKS
DENISON        CLOUDY    73  72  94 S13G21    29.86R
ESTHERVILLE    CLOUDY    68  68 100 SE3       29.87S FOG
LE MARS        MOCLDY    73  72  94 SE8       29.85S
ORANGE CITY    MOCLDY    73  70  88 SE3       29.84F
SHELDON        CLOUDY    72  72 100 SE7       29.84F
SIOUX CITY     MOCLDY    73  71  93 S6        29.83F
SPENCER        CLOUDY    72  70  93 SE6       29.87S
STORM LAKE     CLOUDY    73  73 100 S8        29.87S FOG
$$

ABBREVIATIONS USED IN REMARKS
   TC - TEMPERATURE IN CELSIUS
  WCI - WIND CHILL INDEX
   HX - HEAT INDEX
  VSB - VISIBILITY




USA.gov is the U.S. government's official web portal to all federal, state and local government web resources and services.